User: anonymous   Login
Location: Arbon
(43.0005°N, 0.7472°E)
Time: 07:18:07
(UTC+00:00)
Language:

Cosmos 44 Rocket - Orbit

View from above orbital plane
View from above orbital plane
View from above satellite
View from above satellite

Ground track
Ground track

The orbit data is extracted from the following two-line orbital elements,

1   877U 64053B   20296.21567825 -.00000076  00000-0  94818-5 0  9994
2   877  65.0776 318.5438 0071208 336.5871  23.1990 14.59402264979981
Epoch (UTC): 22 October 2020 05:10:34
Eccentricity: 0.0071208
inclination: 65.0776°
perigee height: 645 km
apogee height: 745 km
right ascension of ascending node: 318.5438°
argument of perigee: 336.5871°
revolutions per day: 14.59402264
mean anomaly at epoch: 23.1990°
orbit number at epoch: 97998

The dashed part of the orbit path shows where the satellite is in the earth's shadow,  

DLR